Time,TemperatureF,DewpointF,PressureIn,WindDirection,WindDirectionDegrees,WindSpeedMPH,WindSpeedGustMPH,Humidity,HourlyPrecipIn,Conditions,Clouds,dailyrainin,SoftwareType,DateUTC
2013-01-15 00:00:00,23.0,15.3,30.33,NE,53,0.0,6.0,72,0.00,,,0.00,VWS V14.01,2013-01-15 06:00:00,
2013-01-15 00:01:00,22.9,15.2,30.33,East,98,4.5,4.5,72,0.00,,,0.00,VWS V14.01,2013-01-15 06:01:00,
2013-01-15 00:06:00,23.0,15.3,30.33,ENE,77,3.0,8.0,72,0.00,,,0.00,VWS V14.01,2013-01-15 06:06:00,
2013-01-15 00:11:00,23.0,15.3,30.33,East,82,4.5,8.0,72,0.00,,,0.00,VWS V14.01,2013-01-15 06:11:00,
2013-01-15 00:16:00,23.1,15.1,30.32,NE,38,3.0,9.0,71,0.00,,,0.00,VWS V14.01,2013-01-15 06:16:00,
2013-01-15 00:21:00,23.0,15.3,30.33,East,91,1.5,9.0,72,0.00,,,0.00,VWS V14.01,2013-01-15 06:21:00,
2013-01-15 00:26:00,22.8,15.1,30.33,ENE,68,0.0,9.0,72,0.00,,,0.00,VWS V14.01,2013-01-15 06:26:00,
2013-01-15 00:31:00,22.7,15.4,30.32,ENE,76,1.5,9.0,73,0.00,,,0.00,VWS V14.01,2013-01-15 06:31:00,
2013-01-15 00:36:00,22.7,15.4,30.32,ENE,60,6.0,9.0,73,0.00,,,0.00,VWS V14.01,2013-01-15 06:36:00,
2013-01-15 00:41:00,22.6,15.3,30.33,North,11,1.5,9.0,73,0.00,,,0.00,VWS V14.01,2013-01-15 06:41:00,
2013-01-15 00:46:00,22.5,15.5,30.33,ENE,71,6.0,9.0,74,0.00,,,0.00,VWS V14.01,2013-01-15 06:46:00,
2013-01-15 00:51:00,22.4,15.4,30.33,ENE,72,3.0,9.0,74,0.00,,,0.00,VWS V14.01,2013-01-15 06:51:00,
2013-01-15 00:56:00,22.3,15.3,30.32,ENE,77,6.0,9.0,74,0.00,,,0.00,VWS V14.01,2013-01-15 06:56:00,
2013-01-15 01:00:00,21.8,15.7,30.31,ENE,59,6.0,10.0,77,0.00,,,0.00,VWS V14.01,2013-01-15 07:00:00,
2013-01-15 01:01:00,22.4,15.7,30.32,East,79,3.0,9.0,75,0.00,,,0.00,VWS V14.01,2013-01-15 07:01:00,
2013-01-15 01:06:00,22.4,15.7,30.32,ENE,63,1.5,9.0,75,0.00,,,0.00,VWS V14.01,2013-01-15 07:06:00,
2013-01-15 01:11:00,22.3,15.6,30.32,ENE,69,0.0,9.0,75,0.00,,,0.00,VWS V14.01,2013-01-15 07:11:00,
2013-01-15 01:16:00,22.4,15.7,30.32,East,82,0.0,9.0,75,0.00,,,0.00,VWS V14.01,2013-01-15 07:16:00,
2013-01-15 01:21:00,22.2,15.5,30.32,East,89,1.5,9.0,75,0.00,,,0.00,VWS V14.01,2013-01-15 07:21:00,
2013-01-15 01:26:00,22.1,15.7,30.32,NE,54,6.0,10.0,76,0.00,,,0.00,VWS V14.01,2013-01-15 07:26:00,
2013-01-15 01:31:00,22.1,15.7,30.32,SE,135,1.5,10.0,76,0.00,,,0.00,VWS V14.01,2013-01-15 07:31:00,
2013-01-15 01:36:00,22.0,15.6,30.31,WSW,238,0.0,10.0,76,0.00,,,0.00,VWS V14.01,2013-01-15 07:36:00,
2013-01-15 01:41:00,22.0,15.6,30.31,ENE,75,4.5,10.0,76,0.00,,,0.00,VWS V14.01,2013-01-15 07:41:00,
2013-01-15 01:46:00,21.9,15.8,30.31,NE,40,0.0,10.0,77,0.00,,,0.00,VWS V14.01,2013-01-15 07:46:00,
2013-01-15 01:51:00,21.8,15.7,30.31,ENE,73,4.5,10.0,77,0.00,,,0.00,VWS V14.01,2013-01-15 07:51:00,
2013-01-15 01:56:00,21.8,15.7,30.31,North,350,1.5,10.0,77,0.00,,,0.00,VWS V14.01,2013-01-15 07:56:00,
2013-01-15 02:00:00,21.8,15.7,30.31,ENE,59,6.0,10.0,77,0.00,,,0.00,VWS V14.01,2013-01-15 08:00:00,
2013-01-15 02:01:00,21.8,15.7,30.31,ENE,75,6.0,6.0,77,0.00,,,0.00,VWS V14.01,2013-01-15 08:01:00,
2013-01-15 02:06:00,21.8,15.7,30.32,ENE,71,0.0,5.0,77,0.00,,,0.00,VWS V14.01,2013-01-15 08:06:00,
2013-01-15 02:11:00,21.7,15.6,30.32,ENE,78,1.5,6.0,77,0.00,,,0.00,VWS V14.01,2013-01-15 08:11:00,
2013-01-15 02:16:00,21.6,15.5,30.32,ENE,72,7.5,7.5,77,0.00,,,0.00,VWS V14.01,2013-01-15 08:16:00,
2013-01-15 02:21:00,21.5,15.4,30.31,ENE,73,1.5,6.0,77,0.00,,,0.00,VWS V14.01,2013-01-15 08:21:00,
2013-01-15 02:26:00,21.6,15.5,30.32,ENE,73,4.5,6.0,77,0.00,,,0.00,VWS V14.01,2013-01-15 08:26:00,
2013-01-15 02:31:00,21.6,15.5,30.31,ESE,103,4.5,6.0,77,0.00,,,0.00,VWS V14.01,2013-01-15 08:31:00,
2013-01-15 02:36:00,21.5,15.4,30.31,ENE,71,3.0,6.0,77,0.00,,,0.00,VWS V14.01,2013-01-15 08:36:00,
2013-01-15 02:41:00,21.4,15.6,30.31,ENE,69,1.5,6.0,78,0.00,,,0.00,VWS V14.01,2013-01-15 08:41:00,
2013-01-15 02:46:00,21.2,15.4,30.30,ENE,60,3.0,6.0,78,0.00,,,0.00,VWS V14.01,2013-01-15 08:46:00,
2013-01-15 02:51:00,21.0,15.2,30.30,ENE,70,0.0,6.0,78,0.00,,,0.00,VWS V14.01,2013-01-15 08:51:00,
2013-01-15 02:56:00,21.0,15.5,30.30,NE,44,0.0,7.0,79,0.00,,,0.00,VWS V14.01,2013-01-15 08:56:00,
2013-01-15 03:00:00,20.8,15.3,30.29,ENE,60,7.5,7.5,79,0.00,,,0.00,VWS V14.01,2013-01-15 09:00:00,
2013-01-15 03:05:00,20.8,15.3,30.30,ENE,75,3.0,7.0,79,0.00,,,0.00,VWS V14.01,2013-01-15 09:05:00,
2013-01-15 03:10:00,20.6,15.4,30.29,NNE,26,3.0,7.0,80,0.00,,,0.00,VWS V14.01,2013-01-15 09:10:00,
2013-01-15 03:15:00,20.5,15.3,30.30,ENE,72,1.5,7.0,80,0.00,,,0.00,VWS V14.01,2013-01-15 09:15:00,
2013-01-15 03:20:00,20.4,15.2,30.30,NNE,26,3.0,7.0,80,0.00,,,0.00,VWS V14.01,2013-01-15 09:20:00,
2013-01-15 03:26:00,20.4,15.5,30.30,NNE,28,1.5,7.0,81,0.00,,,0.00,VWS V14.01,2013-01-15 09:26:00,
2013-01-15 03:31:00,20.4,15.5,30.30,ENE,59,0.0,7.0,81,0.00,,,0.00,VWS V14.01,2013-01-15 09:31:00,
2013-01-15 03:36:00,20.2,15.3,30.30,NE,36,1.5,7.0,81,0.00,,,0.00,VWS V14.01,2013-01-15 09:36:00,
2013-01-15 03:41:00,20.2,15.3,30.29,NE,56,1.5,7.0,81,0.00,,,0.00,VWS V14.01,2013-01-15 09:41:00,
2013-01-15 03:46:00,20.2,15.3,30.29,NE,55,1.5,7.0,81,0.00,,,0.00,VWS V14.01,2013-01-15 09:46:00,
2013-01-15 03:51:00,20.2,15.3,30.29,NE,34,1.5,7.0,81,0.00,,,0.00,VWS V14.01,2013-01-15 09:51:00,
2013-01-15 03:56:00,20.1,15.2,30.29,ENE,72,0.0,7.0,81,0.00,,,0.00,VWS V14.01,2013-01-15 09:56:00,
2013-01-15 04:00:00,20.0,15.4,30.29,NE,41,1.5,7.0,82,0.00,,,0.00,VWS V14.01,2013-01-15 10:00:00,
2013-01-15 04:01:00,20.0,15.4,30.29,NE,49,1.5,4.0,82,0.00,,,0.00,VWS V14.01,2013-01-15 10:01:00,
2013-01-15 04:06:00,20.0,15.1,30.29,ENE,63,1.5,4.0,81,0.00,,,0.00,VWS V14.01,2013-01-15 10:06:00,
2013-01-15 04:11:00,19.9,15.0,30.29,East,84,0.0,4.0,81,0.00,,,0.00,VWS V14.01,2013-01-15 10:11:00,
2013-01-15 04:16:00,19.7,15.1,30.29,NE,48,3.0,4.0,82,0.00,,,0.00,VWS V14.01,2013-01-15 10:16:00,
2013-01-15 04:21:00,19.8,14.9,30.29,ENE,71,3.0,4.0,81,0.00,,,0.00,VWS V14.01,2013-01-15 10:21:00,
2013-01-15 04:26:00,19.9,15.0,30.29,ENE,61,1.5,4.0,81,0.00,,,0.00,VWS V14.01,2013-01-15 10:26:00,
2013-01-15 04:31:00,20.0,15.1,30.29,East,82,1.5,4.0,81,0.00,,,0.00,VWS V14.01,2013-01-15 10:31:00,
2013-01-15 04:36:00,20.0,14.8,30.29,NE,53,0.0,4.0,80,0.00,,,0.00,VWS V14.01,2013-01-15 10:36:00,
2013-01-15 04:41:00,20.0,14.8,30.29,ENE,58,0.0,5.0,80,0.00,,,0.00,VWS V14.01,2013-01-15 10:41:00,
2013-01-15 04:46:00,20.0,14.8,30.29,NNE,20,1.5,5.0,80,0.00,,,0.00,VWS V14.01,2013-01-15 10:46:00,
2013-01-15 04:51:00,20.0,14.8,30.29,ENE,75,3.0,5.0,80,0.00,,,0.00,VWS V14.01,2013-01-15 10:51:00,
2013-01-15 04:56:00,19.8,14.6,30.29,ENE,68,1.5,5.0,80,0.00,,,0.00,VWS V14.01,2013-01-15 10:56:00,
2013-01-15 05:00:00,19.7,14.3,30.28,ENE,70,1.5,6.0,79,0.00,,,0.00,VWS V14.01,2013-01-15 11:00:00,
2013-01-15 05:01:00,19.8,14.6,30.28,ENE,67,1.5,5.0,80,0.00,,,0.00,VWS V14.01,2013-01-15 11:01:00,
2013-01-15 05:06:00,19.7,14.5,30.28,NE,41,0.0,5.0,80,0.00,,,0.00,VWS V14.01,2013-01-15 11:06:00,
2013-01-15 05:11:00,19.6,14.4,30.28,SE,124,4.5,5.0,80,0.00,,,0.00,VWS V14.01,2013-01-15 11:11:00,
2013-01-15 05:16:00,19.6,14.4,30.28,ENE,63,0.0,5.0,80,0.00,,,0.00,VWS V14.01,2013-01-15 11:16:00,
2013-01-15 05:21:00,19.5,14.6,30.28,ENE,72,0.0,5.0,81,0.00,,,0.00,VWS V14.01,2013-01-15 11:21:00,
2013-01-15 05:26:00,19.6,14.4,30.28,NE,53,1.5,5.0,80,0.00,,,0.00,VWS V14.01,2013-01-15 11:26:00,
2013-01-15 05:31:00,19.5,14.4,30.28,ENE,69,1.5,5.0,80,0.00,,,0.00,VWS V14.01,2013-01-15 11:31:00,
2013-01-15 05:36:00,19.4,14.2,30.28,ENE,69,0.0,5.0,80,0.00,,,0.00,VWS V14.01,2013-01-15 11:36:00,
2013-01-15 05:41:00,19.4,14.2,30.28,East,79,1.5,5.0,80,0.00,,,0.00,VWS V14.01,2013-01-15 11:41:00,
2013-01-15 05:46:00,19.4,14.2,30.28,ENE,77,6.0,6.0,80,0.00,,,0.00,VWS V14.01,2013-01-15 11:46:00,
2013-01-15 05:51:00,19.7,14.3,30.28,ENE,72,3.0,6.0,79,0.00,,,0.00,VWS V14.01,2013-01-15 11:51:00,
2013-01-15 05:56:00,19.7,14.3,30.28,ENE,75,0.0,6.0,79,0.00,,,0.00,VWS V14.01,2013-01-15 11:56:00,
2013-01-15 06:00:00,19.7,14.3,30.28,ENE,70,1.5,6.0,79,0.00,,,0.00,VWS V14.01,2013-01-15 12:00:00,
2013-01-15 06:01:00,19.7,14.3,30.28,East,86,0.0,2.0,79,0.00,,,0.00,VWS V14.01,2013-01-15 12:01:00,
2013-01-15 06:06:00,19.8,14.1,30.29,East,91,0.0,3.0,78,0.00,,,0.00,VWS V14.01,2013-01-15 12:06:00,
2013-01-15 06:11:00,19.9,14.2,30.29,NE,53,7.5,7.5,78,0.00,,,0.00,VWS V14.01,2013-01-15 12:11:00,
2013-01-15 06:16:00,20.0,14.6,30.29,NE,54,0.0,6.0,79,0.00,,,0.00,VWS V14.01,2013-01-15 12:16:00,
2013-01-15 06:21:00,20.1,14.4,30.27,NE,41,1.5,7.0,78,0.00,,,0.00,VWS V14.01,2013-01-15 12:21:00,
2013-01-15 06:26:00,20.0,14.3,30.28,ENE,68,0.0,7.0,78,0.00,,,0.00,VWS V14.01,2013-01-15 12:26:00,
2013-01-15 06:31:00,20.1,14.1,30.28,ENE,73,1.5,7.0,77,0.00,,,0.00,VWS V14.01,2013-01-15 12:31:00,
2013-01-15 06:36:00,20.0,14.0,30.28,ENE,71,0.0,7.0,77,0.00,,,0.00,VWS V14.01,2013-01-15 12:36:00,
2013-01-15 06:41:00,20.1,14.4,30.28,East,79,1.5,7.0,78,0.00,,,0.00,VWS V14.01,2013-01-15 12:41:00,
2013-01-15 06:46:00,20.1,14.4,30.29,ENE,75,0.0,7.0,78,0.00,,,0.00,VWS V14.01,2013-01-15 12:46:00,
2013-01-15 06:51:00,20.2,14.2,30.29,ESE,120,0.0,7.0,77,0.00,,,0.00,VWS V14.01,2013-01-15 12:51:00,
2013-01-15 06:56:00,20.3,14.0,30.29,NE,56,0.0,7.0,76,0.00,,,0.00,VWS V14.01,2013-01-15 12:56:00,
2013-01-15 07:00:00,20.6,14.6,30.26,ENE,76,6.0,9.0,77,0.00,,,0.00,VWS V14.01,2013-01-15 13:00:00,
2013-01-15 07:01:00,20.3,14.0,30.29,ENE,71,3.0,7.0,76,0.00,,,0.00,VWS V14.01,2013-01-15 13:01:00,
2013-01-15 07:06:00,20.4,14.1,30.28,East,83,3.0,7.0,76,0.00,,,0.00,VWS V14.01,2013-01-15 13:06:00,
2013-01-15 07:11:00,20.4,14.1,30.29,East,89,0.0,7.0,76,0.00,,,0.00,VWS V14.01,2013-01-15 13:11:00,
2013-01-15 07:16:00,20.5,14.1,30.29,ENE,73,3.0,7.0,76,0.00,,,0.00,VWS V14.01,2013-01-15 13:16:00,
2013-01-15 07:21:00,20.6,14.2,30.28,NE,48,0.0,7.0,76,0.00,,,0.00,VWS V14.01,2013-01-15 13:21:00,
2013-01-15 07:26:00,20.6,14.2,30.26,NE,54,1.5,7.0,76,0.00,,,0.00,VWS V14.01,2013-01-15 13:26:00,
2013-01-15 07:31:00,20.6,14.2,30.27,ENE,78,1.5,7.0,76,0.00,,,0.00,VWS V14.01,2013-01-15 13:31:00,
2013-01-15 07:36:00,20.7,14.4,30.27,ENE,72,3.0,7.0,76,0.00,,,0.00,VWS V14.01,2013-01-15 13:36:00,
2013-01-15 07:41:00,20.7,14.4,30.25,East,82,4.5,8.0,76,0.00,,,0.00,VWS V14.01,2013-01-15 13:41:00,
2013-01-15 07:46:00,20.6,14.8,30.23,East,90,10.5,10.5,78,0.00,,,0.00,VWS V14.01,2013-01-15 13:46:00,
2013-01-15 07:51:00,20.5,14.7,30.24,ENE,64,3.0,9.0,78,0.00,,,0.00,VWS V14.01,2013-01-15 13:51:00,
2013-01-15 07:56:00,20.5,14.7,30.26,NNE,18,1.5,9.0,78,0.00,,,0.00,VWS V14.01,2013-01-15 13:56:00,
2013-01-15 08:00:00,20.6,14.6,30.26,ENE,76,6.0,9.0,77,0.00,,,0.00,VWS V14.01,2013-01-15 14:00:00,
2013-01-15 08:01:00,20.6,14.6,30.26,ENE,78,3.0,5.0,77,0.00,,,0.00,VWS V14.01,2013-01-15 14:01:00,
2013-01-15 08:06:00,20.7,14.6,30.27,ENE,63,0.0,5.0,77,0.00,,,0.00,VWS V14.01,2013-01-15 14:06:00,
2013-01-15 08:11:00,20.8,14.7,30.29,ENE,65,1.5,5.0,77,0.00,,,0.00,VWS V14.01,2013-01-15 14:11:00,
2013-01-15 08:16:00,20.8,14.7,30.29,NNE,23,3.0,5.0,77,0.00,,,0.00,VWS V14.01,2013-01-15 14:16:00,
2013-01-15 08:21:00,20.9,14.8,30.29,East,79,0.0,5.0,77,0.00,,,0.00,VWS V14.01,2013-01-15 14:21:00,
2013-01-15 08:26:00,20.9,14.8,30.30,NE,52,1.5,5.0,77,0.00,,,0.00,VWS V14.01,2013-01-15 14:26:00,
2013-01-15 08:31:00,21.1,15.0,30.30,NNW,347,3.0,5.0,77,0.00,,,0.00,VWS V14.01,2013-01-15 14:31:00,
2013-01-15 08:36:00,21.2,14.8,30.31,North,6,0.0,5.0,76,0.00,,,0.00,VWS V14.01,2013-01-15 14:36:00,
2013-01-15 08:41:00,21.3,14.6,30.32,NNE,31,1.5,5.0,75,0.00,,,0.00,VWS V14.01,2013-01-15 14:41:00,
2013-01-15 08:46:00,21.3,14.6,30.32,NNE,30,1.5,5.0,75,0.00,,,0.00,VWS V14.01,2013-01-15 14:46:00,
2013-01-15 08:51:00,21.5,14.8,30.32,ENE,58,0.0,5.0,75,0.00,,,0.00,VWS V14.01,2013-01-15 14:51:00,
2013-01-15 08:56:00,21.7,15.0,30.33,East,82,0.0,5.0,75,0.00,,,0.00,VWS V14.01,2013-01-15 14:56:00,
2013-01-15 09:00:00,23.9,14.2,30.30,ENE,63,4.5,8.0,66,0.00,,,0.00,VWS V14.01,2013-01-15 15:00:00,
2013-01-15 09:01:00,21.7,14.4,30.33,ENE,73,0.0,1.0,73,0.00,,,0.00,VWS V14.01,2013-01-15 15:01:00,
2013-01-15 09:06:00,21.8,14.2,30.34,NNE,25,3.0,3.0,72,0.00,,,0.00,VWS V14.01,2013-01-15 15:06:00,
2013-01-15 09:11:00,22.0,14.4,30.33,ENE,76,0.0,2.0,72,0.00,,,0.00,VWS V14.01,2013-01-15 15:11:00,
2013-01-15 09:16:00,22.1,14.5,30.33,NE,54,0.0,2.0,72,0.00,,,0.00,VWS V14.01,2013-01-15 15:16:00,
2013-01-15 09:21:00,22.2,14.2,30.32,East,84,3.0,4.0,71,0.00,,,0.00,VWS V14.01,2013-01-15 15:21:00,
2013-01-15 09:26:00,22.3,14.0,30.32,ENE,60,3.0,7.0,70,0.00,,,0.00,VWS V14.01,2013-01-15 15:26:00,
2013-01-15 09:31:00,22.5,14.2,30.31,ENE,60,3.0,7.0,70,0.00,,,0.00,VWS V14.01,2013-01-15 15:31:00,
2013-01-15 09:36:00,22.7,15.1,30.31,ENE,67,3.0,7.0,72,0.00,,,0.00,VWS V14.01,2013-01-15 15:36:00,
2013-01-15 09:41:00,22.9,14.6,30.31,ENE,71,3.0,7.0,70,0.00,,,0.00,VWS V14.01,2013-01-15 15:41:00,
2013-01-15 09:46:00,23.1,14.1,30.30,NNE,32,0.0,7.0,68,0.00,,,0.00,VWS V14.01,2013-01-15 15:46:00,
2013-01-15 09:51:00,23.3,14.3,30.30,ENE,70,1.5,8.0,68,0.00,,,0.00,VWS V14.01,2013-01-15 15:51:00,
2013-01-15 09:56:00,23.6,14.6,30.30,NE,44,4.5,8.0,68,0.00,,,0.00,VWS V14.01,2013-01-15 15:56:00,
2013-01-15 10:01:00,23.9,14.2,30.30,East,82,1.5,3.0,66,0.00,,,0.00,VWS V14.01,2013-01-15 16:01:00,
2013-01-15 10:06:00,24.1,14.1,30.30,ENE,78,0.0,4.0,65,0.00,,,0.00,VWS V14.01,2013-01-15 16:06:00,
2013-01-15 10:11:00,24.5,14.4,30.30,North,11,1.5,4.0,65,0.00,,,0.00,VWS V14.01,2013-01-15 16:11:00,
2013-01-15 10:16:00,24.7,13.9,30.30,ENE,66,0.0,5.0,63,0.00,,,0.00,VWS V14.01,2013-01-15 16:16:00,
2013-01-15 10:21:00,24.8,14.0,30.29,ENE,69,1.5,5.0,63,0.00,,,0.00,VWS V14.01,2013-01-15 16:21:00,
2013-01-15 10:26:00,25.0,13.1,30.29,ENE,76,3.0,7.0,60,0.00,,,0.00,VWS V14.01,2013-01-15 16:26:00,
2013-01-15 10:31:00,25.1,13.9,30.29,SE,125,0.0,7.0,62,0.00,,,0.00,VWS V14.01,2013-01-15 16:31:00,
2013-01-15 10:35:00,25.2,12.1,30.28,ENE,68,10.5,10.5,57,0.00,,,0.00,VWS V14.01,2013-01-15 16:35:00,
2013-01-15 10:40:00,25.0,12.7,30.27,East,79,4.5,9.0,59,0.00,,,0.00,VWS V14.01,2013-01-15 16:40:00,
2013-01-15 10:45:00,25.0,13.5,30.28,NE,56,3.0,9.0,61,0.00,,,0.00,VWS V14.01,2013-01-15 16:45:00,
2013-01-15 10:50:00,25.2,14.4,30.28,ENE,70,6.0,9.0,63,0.00,,,0.00,VWS V14.01,2013-01-15 16:50:00,
2013-01-15 10:56:00,25.4,14.6,30.28,East,90,3.0,9.0,63,0.00,,,0.00,VWS V14.01,2013-01-15 16:56:00,
2013-01-15 11:00:00,25.6,14.8,30.27,ENE,66,13.5,13.5,63,0.00,,,0.00,VWS V14.01,2013-01-15 17:00:00,
2013-01-15 11:05:00,25.7,14.5,30.26,East,95,6.0,10.0,62,0.00,,,0.00,VWS V14.01,2013-01-15 17:05:00,
2013-01-15 11:10:00,26.0,14.4,30.26,ENE,71,3.0,10.0,61,0.00,,,0.00,VWS V14.01,2013-01-15 17:10:00,
2013-01-15 11:15:00,26.1,13.8,30.26,ESE,117,1.5,10.0,59,0.00,,,0.00,VWS V14.01,2013-01-15 17:15:00,
2013-01-15 11:20:00,25.8,13.9,30.26,ENE,66,3.0,10.0,60,0.00,,,0.00,VWS V14.01,2013-01-15 17:20:00,
2013-01-15 11:25:00,25.8,14.2,30.25,NE,38,0.0,10.0,61,0.00,,,0.00,VWS V14.01,2013-01-15 17:25:00,
2013-01-15 11:30:00,26.2,14.6,30.25,ESE,115,4.5,10.0,61,0.00,,,0.00,VWS V14.01,2013-01-15 17:30:00,
2013-01-15 11:35:00,26.3,14.7,30.24,ENE,75,1.5,10.0,61,0.00,,,0.00,VWS V14.01,2013-01-15 17:35:00,
2013-01-15 11:40:00,26.5,14.5,30.24,ESE,121,4.5,10.0,60,0.00,,,0.00,VWS V14.01,2013-01-15 17:40:00,
2013-01-15 11:45:00,26.8,14.0,30.22,ENE,75,10.5,11.0,58,0.00,,,0.00,VWS V14.01,2013-01-15 17:45:00,
2013-01-15 11:50:00,26.9,14.1,30.22,ENE,72,4.5,11.0,58,0.00,,,0.00,VWS V14.01,2013-01-15 17:50:00,
2013-01-15 11:55:00,27.1,15.1,30.22,East,83,15.0,15.0,60,0.00,,,0.00,VWS V14.01,2013-01-15 17:55:00,
2013-01-15 12:00:00,27.3,15.6,30.22,East,96,1.5,6.0,61,0.00,,,0.00,VWS V14.01,2013-01-15 18:00:00,
2013-01-15 12:05:00,27.7,16.4,30.22,East,80,4.5,8.0,62,0.00,,,0.00,VWS V14.01,2013-01-15 18:05:00,
2013-01-15 12:10:00,28.7,17.3,30.21,East,83,3.0,8.0,62,0.00,,,0.00,VWS V14.01,2013-01-15 18:10:00,
2013-01-15 12:15:00,29.6,17.8,30.21,ENE,67,4.5,8.0,61,0.00,,,0.00,VWS V14.01,2013-01-15 18:15:00,
2013-01-15 12:20:00,30.0,18.2,30.20,SE,135,1.5,8.0,61,0.00,,,0.00,VWS V14.01,2013-01-15 18:20:00,
2013-01-15 12:25:00,30.2,18.0,30.20,ENE,72,10.5,12.0,60,0.00,,,0.00,VWS V14.01,2013-01-15 18:25:00,
2013-01-15 12:30:00,29.7,17.1,30.20,East,84,13.5,13.5,59,0.00,,,0.00,VWS V14.01,2013-01-15 18:30:00,
2013-01-15 12:35:00,29.9,17.7,30.20,ENE,64,1.5,12.0,60,0.00,,,0.00,VWS V14.01,2013-01-15 18:35:00,
2013-01-15 12:40:00,30.7,18.9,30.20,NNW,342,0.0,12.0,61,0.00,,,0.00,VWS V14.01,2013-01-15 18:40:00,
2013-01-15 12:45:00,30.8,18.2,30.20,ENE,69,9.0,12.0,59,0.00,,,0.00,VWS V14.01,2013-01-15 18:45:00,
2013-01-15 12:50:00,30.7,18.5,30.19,WSW,252,1.5,12.0,60,0.00,,,0.00,VWS V14.01,2013-01-15 18:50:00,
2013-01-15 12:55:00,30.9,18.7,30.19,ESE,123,1.5,12.0,60,0.00,,,0.00,VWS V14.01,2013-01-15 18:55:00,
2013-01-15 13:00:00,31.4,18.7,30.19,East,98,4.5,12.0,59,0.00,,,0.00,VWS V14.01,2013-01-15 19:00:00,
2013-01-15 13:05:00,32.1,19.4,30.19,NW,304,0.0,12.0,59,0.00,,,0.00,VWS V14.01,2013-01-15 19:05:00,
2013-01-15 13:10:00,32.5,19.4,30.18,East,91,1.5,12.0,58,0.00,,,0.00,VWS V14.01,2013-01-15 19:10:00,
2013-01-15 13:15:00,32.9,19.8,30.18,East,83,6.0,12.0,58,0.00,,,0.00,VWS V14.01,2013-01-15 19:15:00,
2013-01-15 13:20:00,33.3,20.5,30.18,ENE,72,1.5,12.0,59,0.00,,,0.00,VWS V14.01,2013-01-15 19:20:00,
2013-01-15 13:25:00,33.4,19.8,30.18,East,79,4.5,12.0,57,0.00,,,0.00,VWS V14.01,2013-01-15 19:25:00,
2013-01-15 13:30:00,33.6,20.4,30.18,East,98,0.0,12.0,58,0.00,,,0.00,VWS V14.01,2013-01-15 19:30:00,
2013-01-15 13:35:00,33.6,19.2,30.17,NE,38,4.5,12.0,55,0.00,,,0.00,VWS V14.01,2013-01-15 19:35:00,
2013-01-15 13:40:00,33.7,19.3,30.17,East,95,3.0,12.0,55,0.00,,,0.00,VWS V14.01,2013-01-15 19:40:00,
2013-01-15 13:45:00,33.4,19.0,30.17,NE,47,3.0,12.0,55,0.00,,,0.00,VWS V14.01,2013-01-15 19:45:00,
2013-01-15 13:50:00,33.2,19.2,30.17,North,8,0.0,12.0,56,0.00,,,0.00,VWS V14.01,2013-01-15 19:50:00,
2013-01-15 13:55:00,33.2,18.8,30.17,North,350,1.5,12.0,55,0.00,,,0.00,VWS V14.01,2013-01-15 19:55:00,
2013-01-15 14:00:00,33.3,18.5,30.17,ENE,75,9.0,9.0,54,0.00,,,0.00,VWS V14.01,2013-01-15 20:00:00,
2013-01-15 14:05:00,33.4,19.0,30.17,NNE,27,7.5,7.5,55,0.00,,,0.00,VWS V14.01,2013-01-15 20:05:00,
2013-01-15 14:10:00,33.7,18.8,30.16,NNE,28,0.0,7.0,54,0.00,,,0.00,VWS V14.01,2013-01-15 20:10:00,
2013-01-15 14:15:00,33.7,18.4,30.15,East,91,3.0,7.0,53,0.00,,,0.00,VWS V14.01,2013-01-15 20:15:00,
2013-01-15 14:20:00,33.7,18.0,30.16,NE,36,0.0,7.0,52,0.00,,,0.00,VWS V14.01,2013-01-15 20:20:00,
2013-01-15 14:25:00,33.9,18.1,30.15,NNW,339,1.5,7.0,52,0.00,,,0.00,VWS V14.01,2013-01-15 20:25:00,
2013-01-15 14:30:00,33.9,18.6,30.15,North,359,1.5,8.0,53,0.00,,,0.00,VWS V14.01,2013-01-15 20:30:00,
2013-01-15 14:35:00,34.0,18.7,30.15,East,89,1.5,8.0,53,0.00,,,0.00,VWS V14.01,2013-01-15 20:35:00,
2013-01-15 14:40:00,34.1,18.8,30.16,NE,46,6.0,8.0,53,0.00,,,0.00,VWS V14.01,2013-01-15 20:40:00,
2013-01-15 14:45:00,34.0,18.7,30.16,East,89,0.0,8.0,53,0.00,,,0.00,VWS V14.01,2013-01-15 20:45:00,
2013-01-15 14:50:00,34.1,18.8,30.17,North,4,4.5,8.0,53,0.00,,,0.00,VWS V14.01,2013-01-15 20:50:00,
2013-01-15 14:55:00,33.9,18.6,30.17,NNE,27,4.5,8.0,53,0.00,,,0.00,VWS V14.01,2013-01-15 20:55:00,
2013-01-15 15:00:00,33.7,18.0,30.17,NE,40,0.0,8.0,52,0.00,,,0.00,VWS V14.01,2013-01-15 21:00:00,
2013-01-15 15:05:00,33.7,18.0,30.17,NNE,26,4.5,8.0,52,0.00,,,0.00,VWS V14.01,2013-01-15 21:05:00,
2013-01-15 15:10:00,33.5,17.8,30.18,WNW,302,1.5,8.0,52,0.00,,,0.00,VWS V14.01,2013-01-15 21:10:00,
2013-01-15 15:15:00,33.4,18.1,30.17,North,4,1.5,8.0,53,0.00,,,0.00,VWS V14.01,2013-01-15 21:15:00,
2013-01-15 15:20:00,33.4,18.1,30.17,NE,46,4.5,8.0,53,0.00,,,0.00,VWS V14.01,2013-01-15 21:20:00,
2013-01-15 15:25:00,33.4,17.7,30.17,NNE,27,4.5,8.0,52,0.00,,,0.00,VWS V14.01,2013-01-15 21:25:00,
2013-01-15 15:30:00,33.4,17.7,30.17,NNW,333,9.0,9.0,52,0.00,,,0.00,VWS V14.01,2013-01-15 21:30:00,
2013-01-15 15:35:00,33.3,16.7,30.18,NE,37,4.5,9.0,50,0.00,,,0.00,VWS V14.01,2013-01-15 21:35:00,
2013-01-15 15:40:00,33.2,17.0,30.19,NNE,22,3.0,9.0,51,0.00,,,0.00,VWS V14.01,2013-01-15 21:40:00,
2013-01-15 15:45:00,33.3,16.7,30.19,NNE,23,7.5,10.0,50,0.00,,,0.00,VWS V14.01,2013-01-15 21:45:00,
2013-01-15 15:50:00,33.1,16.5,30.19,NNW,337,7.5,10.0,50,0.00,,,0.00,VWS V14.01,2013-01-15 21:50:00,
2013-01-15 15:55:00,33.0,16.4,30.19,North,9,4.5,10.0,50,0.00,,,0.00,VWS V14.01,2013-01-15 21:55:00,
2013-01-15 16:00:00,33.0,16.9,30.19,North,9,3.0,4.0,51,0.00,,,0.00,VWS V14.01,2013-01-15 22:00:00,
2013-01-15 16:05:00,33.1,17.0,30.19,NE,41,1.5,4.0,51,0.00,,,0.00,VWS V14.01,2013-01-15 22:05:00,
2013-01-15 16:10:00,33.2,17.0,30.19,NE,53,3.0,6.0,51,0.00,,,0.00,VWS V14.01,2013-01-15 22:10:00,
2013-01-15 16:15:00,33.0,16.9,30.19,ENE,72,0.0,6.0,51,0.00,,,0.00,VWS V14.01,2013-01-15 22:15:00,
2013-01-15 16:20:00,33.1,17.4,30.19,NNE,18,9.0,9.0,52,0.00,,,0.00,VWS V14.01,2013-01-15 22:20:00,
2013-01-15 16:25:00,33.0,17.3,30.20,NNE,27,4.5,7.0,52,0.00,,,0.00,VWS V14.01,2013-01-15 22:25:00,
2013-01-15 16:30:00,32.9,17.2,30.20,North,352,1.5,7.0,52,0.00,,,0.00,VWS V14.01,2013-01-15 22:30:00,
2013-01-15 16:35:00,32.9,17.7,30.20,North,8,3.0,7.0,53,0.00,,,0.00,VWS V14.01,2013-01-15 22:35:00,
2013-01-15 16:40:00,32.9,17.7,30.20,NNE,13,4.5,7.0,53,0.00,,,0.00,VWS V14.01,2013-01-15 22:40:00,
2013-01-15 16:45:00,32.9,17.7,30.20,NNE,24,3.0,7.0,53,0.00,,,0.00,VWS V14.01,2013-01-15 22:45:00,
2013-01-15 16:50:00,32.8,17.6,30.20,NNE,18,1.5,7.0,53,0.00,,,0.00,VWS V14.01,2013-01-15 22:50:00,
2013-01-15 16:55:00,32.8,18.0,30.20,NE,38,1.5,7.0,54,0.00,,,0.00,VWS V14.01,2013-01-15 22:55:00,
2013-01-15 17:00:00,32.8,18.0,30.20,NNE,16,3.0,7.0,54,0.00,,,0.00,VWS V14.01,2013-01-15 23:00:00,
2013-01-15 17:05:00,32.7,17.9,30.20,North,360,4.5,7.0,54,0.00,,,0.00,VWS V14.01,2013-01-15 23:05:00,
2013-01-15 17:10:00,32.7,18.3,30.20,NE,41,0.0,7.0,55,0.00,,,0.00,VWS V14.01,2013-01-15 23:10:00,
2013-01-15 17:15:00,32.6,17.8,30.20,North,1,6.0,7.0,54,0.00,,,0.00,VWS V14.01,2013-01-15 23:15:00,
2013-01-15 17:20:00,32.5,16.9,30.20,NNE,27,6.0,7.0,52,0.00,,,0.00,VWS V14.01,2013-01-15 23:20:00,
2013-01-15 17:25:00,32.4,16.3,30.21,North,358,3.0,7.0,51,0.00,,,0.00,VWS V14.01,2013-01-15 23:25:00,
2013-01-15 17:30:00,32.2,16.1,30.20,NNE,26,4.5,7.0,51,0.00,,,0.00,VWS V14.01,2013-01-15 23:30:00,
2013-01-15 17:35:00,32.0,15.5,30.20,NNE,20,3.0,7.0,50,0.00,,,0.00,VWS V14.01,2013-01-15 23:35:00,
2013-01-15 17:40:00,31.8,16.2,30.20,ENE,63,1.5,7.0,52,0.00,,,0.00,VWS V14.01,2013-01-15 23:40:00,
2013-01-15 17:45:00,31.6,15.6,30.20,NNE,25,1.5,7.0,51,0.00,,,0.00,VWS V14.01,2013-01-15 23:45:00,
2013-01-15 17:50:00,31.4,15.8,30.20,NE,41,1.5,7.0,52,0.00,,,0.00,VWS V14.01,2013-01-15 23:50:00,
2013-01-15 17:55:00,31.3,15.7,30.20,NE,38,0.0,7.0,52,0.00,,,0.00,VWS V14.01,2013-01-15 23:55:00,
2013-01-15 18:00:00,31.2,15.6,30.20,NE,38,0.0,0.0,52,0.00,,,0.00,VWS V14.01,2013-01-16 00:00:00,
2013-01-15 18:05:00,31.1,16.0,30.20,NE,45,0.0,1.0,53,0.00,,,0.00,VWS V14.01,2013-01-16 00:05:00,
2013-01-15 18:10:00,31.1,16.0,30.20,NNE,29,1.5,2.0,53,0.00,,,0.00,VWS V14.01,2013-01-16 00:10:00,
2013-01-15 18:15:00,31.2,16.5,30.21,NNE,23,1.5,2.0,54,0.00,,,0.00,VWS V14.01,2013-01-16 00:15:00,
2013-01-15 18:20:00,31.3,16.6,30.21,NNE,18,1.5,2.0,54,0.00,,,0.00,VWS V14.01,2013-01-16 00:20:00,
2013-01-15 18:25:00,31.3,17.0,30.20,North,1,3.0,3.0,55,0.00,,,0.00,VWS V14.01,2013-01-16 00:25:00,
2013-01-15 18:30:00,31.4,17.1,30.21,North,357,0.0,2.0,55,0.00,,,0.00,VWS V14.01,2013-01-16 00:30:00,
2013-01-15 18:35:00,31.3,17.4,30.21,North,357,0.0,2.0,56,0.00,,,0.00,VWS V14.01,2013-01-16 00:35:00,
2013-01-15 18:40:00,31.3,17.4,30.21,North,358,0.0,2.0,56,0.00,,,0.00,VWS V14.01,2013-01-16 00:40:00,
2013-01-15 18:45:00,31.3,16.6,30.20,NE,50,1.5,3.0,54,0.00,,,0.00,VWS V14.01,2013-01-16 00:45:00,
2013-01-15 18:50:00,31.2,16.5,30.20,NNE,24,0.0,3.0,54,0.00,,,0.00,VWS V14.01,2013-01-16 00:50:00,
2013-01-15 18:55:00,31.2,15.2,30.20,North,360,1.5,4.0,51,0.00,,,0.00,VWS V14.01,2013-01-16 00:55:00,
2013-01-15 19:00:00,31.2,14.7,30.21,NNE,18,1.5,4.0,50,0.00,,,0.00,VWS V14.01,2013-01-16 01:00:00,
2013-01-15 19:05:00,31.2,14.7,30.21,NNE,32,0.0,4.0,50,0.00,,,0.00,VWS V14.01,2013-01-16 01:05:00,
2013-01-15 19:10:00,31.2,14.3,30.20,NNE,28,1.5,4.0,49,0.00,,,0.00,VWS V14.01,2013-01-16 01:10:00,
2013-01-15 19:15:00,31.2,14.3,30.20,North,356,1.5,4.0,49,0.00,,,0.00,VWS V14.01,2013-01-16 01:15:00,
2013-01-15 19:20:00,31.2,14.3,30.20,North,5,4.5,4.5,49,0.00,,,0.00,VWS V14.01,2013-01-16 01:20:00,
2013-01-15 19:25:00,31.2,14.3,30.20,North,354,3.0,4.0,49,0.00,,,0.00,VWS V14.01,2013-01-16 01:25:00,
2013-01-15 19:30:00,31.2,14.3,30.20,North,349,3.0,4.0,49,0.00,,,0.00,VWS V14.01,2013-01-16 01:30:00,
2013-01-15 19:35:00,31.1,14.6,30.20,NE,38,3.0,4.0,50,0.00,,,0.00,VWS V14.01,2013-01-16 01:35:00,
2013-01-15 19:40:00,31.1,14.6,30.20,NNW,338,1.5,4.0,50,0.00,,,0.00,VWS V14.01,2013-01-16 01:40:00,
2013-01-15 19:45:00,31.1,14.6,30.20,NNW,339,0.0,4.0,50,0.00,,,0.00,VWS V14.01,2013-01-16 01:45:00,
2013-01-15 19:50:00,31.0,14.6,30.20,ENE,73,0.0,4.0,50,0.00,,,0.00,VWS V14.01,2013-01-16 01:50:00,
2013-01-15 19:55:00,31.0,14.6,30.19,NNE,33,0.0,4.0,50,0.00,,,0.00,VWS V14.01,2013-01-16 01:55:00,
2013-01-15 20:00:00,31.0,15.0,30.19,North,359,3.0,4.0,51,0.00,,,0.00,VWS V14.01,2013-01-16 02:00:00,
2013-01-15 20:05:00,31.0,15.0,30.19,NNE,32,3.0,4.0,51,0.00,,,0.00,VWS V14.01,2013-01-16 02:05:00,
2013-01-15 20:10:00,31.0,15.9,30.18,NE,48,0.0,4.0,53,0.00,,,0.00,VWS V14.01,2013-01-16 02:10:00,
2013-01-15 20:15:00,30.9,15.4,30.18,NNW,343,1.5,4.0,52,0.00,,,0.00,VWS V14.01,2013-01-16 02:15:00,
2013-01-15 20:20:00,30.8,15.7,30.18,NNE,29,0.0,4.0,53,0.00,,,0.00,VWS V14.01,2013-01-16 02:20:00,
2013-01-15 20:25:00,30.6,15.5,30.17,NNE,32,3.0,4.0,53,0.00,,,0.00,VWS V14.01,2013-01-16 02:25:00,
2013-01-15 20:30:00,30.4,15.8,30.17,NNE,16,1.5,4.0,54,0.00,,,0.00,VWS V14.01,2013-01-16 02:30:00,
2013-01-15 20:35:00,30.3,15.7,30.17,NNE,18,3.0,4.0,54,0.00,,,0.00,VWS V14.01,2013-01-16 02:35:00,
2013-01-15 20:40:00,30.0,15.8,30.17,NNW,340,0.0,4.0,55,0.00,,,0.00,VWS V14.01,2013-01-16 02:40:00,
2013-01-15 20:45:00,29.7,17.1,30.17,NNW,340,0.0,4.0,59,0.00,,,0.00,VWS V14.01,2013-01-16 02:45:00,
2013-01-15 20:50:00,29.4,17.6,30.17,NNE,20,0.0,4.0,61,0.00,,,0.00,VWS V14.01,2013-01-16 02:50:00,
2013-01-15 20:55:00,29.2,18.2,30.18,NNW,345,0.0,4.0,63,0.00,,,0.00,VWS V14.01,2013-01-16 02:55:00,
2013-01-15 21:00:00,29.0,19.4,30.18,NNW,344,0.0,4.0,67,0.00,,,0.00,VWS V14.01,2013-01-16 03:00:00,
2013-01-15 21:05:00,28.8,20.3,30.18,North,8,1.5,4.0,70,0.00,,,0.00,VWS V14.01,2013-01-16 03:05:00,
2013-01-15 21:10:00,28.6,20.4,30.18,North,1,0.0,4.0,71,0.00,,,0.00,VWS V14.01,2013-01-16 03:10:00,
2013-01-15 21:15:00,28.6,20.7,30.18,NNE,30,0.0,4.0,72,0.00,,,0.00,VWS V14.01,2013-01-16 03:15:00,
2013-01-15 21:20:00,28.5,21.0,30.18,North,352,3.0,4.0,73,0.00,,,0.00,VWS V14.01,2013-01-16 03:20:00,
2013-01-15 21:25:00,28.5,21.3,30.18,North,8,3.0,4.0,74,0.00,,,0.00,VWS V14.01,2013-01-16 03:25:00,
2013-01-15 21:30:00,28.2,21.3,30.19,NNW,339,0.0,4.0,75,0.00,,,0.00,VWS V14.01,2013-01-16 03:30:00,
2013-01-15 21:35:00,28.0,21.4,30.19,North,357,0.0,4.0,76,0.00,,,0.00,VWS V14.01,2013-01-16 03:35:00,
2013-01-15 21:40:00,27.8,21.5,30.19,NNW,347,0.0,4.0,77,0.00,,,0.00,VWS V14.01,2013-01-16 03:40:00,
2013-01-15 21:45:00,27.5,21.5,30.20,WNW,300,0.0,4.0,78,0.00,,,0.00,VWS V14.01,2013-01-16 03:45:00,
2013-01-15 21:50:00,27.2,21.6,30.20,NNW,335,0.0,4.0,79,0.00,,,0.00,VWS V14.01,2013-01-16 03:50:00,
2013-01-15 21:55:00,27.0,22.0,30.20,North,5,3.0,5.0,81,0.00,,,0.00,VWS V14.01,2013-01-16 03:55:00,
2013-01-15 22:00:00,26.8,22.0,30.20,North,354,0.0,1.0,82,0.00,,,0.00,VWS V14.01,2013-01-16 04:00:00,
2013-01-15 22:05:00,26.7,22.0,30.19,NE,37,3.0,4.0,82,0.00,,,0.00,VWS V14.01,2013-01-16 04:05:00,
2013-01-15 22:10:00,26.7,22.0,30.20,NW,325,1.5,4.0,82,0.00,,,0.00,VWS V14.01,2013-01-16 04:10:00,
2013-01-15 22:15:00,26.6,22.1,30.20,NNW,342,0.0,4.0,83,0.00,,,0.00,VWS V14.01,2013-01-16 04:15:00,
2013-01-15 22:20:00,26.5,22.0,30.19,North,11,0.0,4.0,83,0.00,,,0.00,VWS V14.01,2013-01-16 04:20:00,
2013-01-15 22:25:00,26.4,22.2,30.19,NNE,26,1.5,4.0,84,0.00,,,0.00,VWS V14.01,2013-01-16 04:25:00,
2013-01-15 22:30:00,26.4,22.0,30.19,North,5,3.0,4.0,83,0.00,,,0.00,VWS V14.01,2013-01-16 04:30:00,
2013-01-15 22:35:00,26.4,22.2,30.19,NNW,327,0.0,4.0,84,0.00,,,0.00,VWS V14.01,2013-01-16 04:35:00,
2013-01-15 22:40:00,26.3,22.1,30.18,NNE,26,0.0,4.0,84,0.00,,,0.00,VWS V14.01,2013-01-16 04:40:00,
2013-01-15 22:45:00,26.2,22.0,30.18,NW,317,0.0,4.0,84,0.00,,,0.00,VWS V14.01,2013-01-16 04:45:00,
2013-01-15 22:50:00,26.1,21.9,30.18,North,4,0.0,4.0,84,0.00,,,0.00,VWS V14.01,2013-01-16 04:50:00,
2013-01-15 22:55:00,25.9,21.7,30.18,NNW,343,1.5,4.0,84,0.00,,,0.00,VWS V14.01,2013-01-16 04:55:00,
2013-01-15 23:00:00,25.8,21.6,30.18,NNE,30,0.0,4.0,84,0.00,,,0.00,VWS V14.01,2013-01-16 05:00:00,
2013-01-15 23:01:00,25.7,21.5,30.18,North,352,3.0,4.0,84,0.00,,,0.00,VWS V14.01,2013-01-16 05:01:00,
2013-01-15 23:06:00,25.5,21.6,30.17,NW,322,0.0,4.0,85,0.00,,,0.00,VWS V14.01,2013-01-16 05:06:00,
2013-01-15 23:11:00,25.4,21.5,30.17,NE,34,0.0,4.0,85,0.00,,,0.00,VWS V14.01,2013-01-16 05:11:00,
2013-01-15 23:16:00,25.3,21.4,30.18,North,355,0.0,4.0,85,0.00,,,0.00,VWS V14.01,2013-01-16 05:16:00,
2013-01-15 23:21:00,25.0,21.1,30.18,North,6,0.0,4.0,85,0.00,,,0.00,VWS V14.01,2013-01-16 05:21:00,
2013-01-15 23:26:00,24.9,21.0,30.19,North,355,0.0,4.0,85,0.00,,,0.00,VWS V14.01,2013-01-16 05:26:00,
2013-01-15 23:31:00,24.6,21.0,30.19,NW,307,0.0,4.0,86,0.00,,,0.00,VWS V14.01,2013-01-16 05:31:00,
2013-01-15 23:36:00,24.5,21.2,30.18,North,9,0.0,4.0,87,0.00,,,0.00,VWS V14.01,2013-01-16 05:36:00,
2013-01-15 23:41:00,24.4,21.1,30.19,NNW,330,0.0,4.0,87,0.00,,,0.00,VWS V14.01,2013-01-16 05:41:00,
2013-01-15 23:46:00,24.3,21.0,30.18,NNW,328,0.0,4.0,87,0.00,,,0.00,VWS V14.01,2013-01-16 05:46:00,
2013-01-15 23:51:00,24.0,21.0,30.19,NNW,330,0.0,4.0,88,0.00,,,0.00,VWS V14.01,2013-01-16 05:51:00,
2013-01-15 23:56:00,23.9,20.9,30.18,NNW,330,0.0,4.0,88,0.00,,,0.00,VWS V14.01,2013-01-16 05:56:00,